Vorticity
2 18 20 9 12 10 9 2 1 1 1 1 3 7 11 13 12 12 9 5 2 5 5 5 5 4 4 3 3 3 3 3 6 5 4 5 9 11 12 12 11 9 9
17 10 10 11 8 6 4 3 1 1 2 8 11 16 16 12 7 5 4 4 4 4 4 3 2 3 3 5 7 9 9 9 9 8 10 7 4 5 5 6 7 9 8
13 5 7 10 6 5 4 2 1 6 11 17 17 9 6 5 4 4 4 4 4 2 2 4 7 11 11 8 4 4 5 5 4 6 8 7 5 4 4 5 6 8 10
8 7 8 9 5 2 0 4 6 13 19 9 6 4 4 4 4 4 3 1 4 9 11 10 6 2 3 5 5 7 8 9 4 -2 -1 0 2 3 5 5 3 2 4
5 7 7 5 2 4 3 5 14 11 10 6 4 3 4 4 4 3 5 10 10 6 4 3 1 1 5 5 3 2 0 0 1 0 0 3 4 6 6 5 7 4 5
2 4 5 4 4 5 5 12 12 8 5 3 4 5 3 5 8 11 11 0 3 4 3 2 1 1 3 3 3 4 3 4 5 6 5 4 4 2 1 5 4 6 -0
5 5 5 6 6 5 8 12 5 3 4 5 4 5 8 10 10 4 0 3 3 1 1 1 2 5 7 6 5 5 7 8 6 3 2 3 3 6 7 7 8 8 8
4 6 7 7 8 9 8 3 4 5 6 6 8 10 12 5 2 1 1 2 1 0 2 5 8 7 6 7 8 7 7 3 -0 0 1 3 7 8 9 10 14 16 17
8 10 9 9 7 5 5 6 6 8 11 12 11 4 2 1 1 2 2 1 2 5 9 8 8 7 5 4 3 -0 0 0 3 7 9 10 11 12 13 21 28 27 36
8 7 8 6 5 6 7 8 13 10 7 8 4 1 3 4 5 6 7 9 9 6 5 4 2 2 4 5 6 4 5 4 5 8 13 15 16 21 28 34 29 22 17
8 5 5 9 9 8 11 8 6 8 7 3 5 5 3 1 3 3 4 6 7 8 8 9 10 7 4 3 1 5 7 8 14 22 20 24 29 33 26 20 17 17 14
4 8 11 8 6 6 9 8 6 5 4 2 1 3 4 5 4 5 7 8 10 9 8 0 5 1 3 4 5 10 13 19 25 25 28 29 25 18 14 12 11 8 8
10 8 7 7 9 7 5 6 3 2 3 1 4 3 4 6 5 7 8 8 6 4 4 2 2 4 6 11 18 26 32 29 27 24 21 17 11 7 6 5 4 2 2
6 10 7 7 6 4 4 1 2 1 2 6 6 4 5 3 9 8 6 7 5 3 2 2 5 9 15 25 29 26 22 19 18 18 13 10 9 7 6 4 2 1 0
9 8 8 3 2 1 1 2 3 7 5 6 5 5 7 7 6 8 8 5 3 2 4 7 11 27 34 26 23 19 16 13 13 13 11 10 7 6 5 4 4 3 1
8 3 4 3 2 2 5 7 7 6 4 5 6 6 6 8 9 5 4 3 3 5 9 18 28 34 21 13 10 6 6 6 5 5 4 5 4 3 1 1 3 4 5
2 4 4 2 4 6 7 5 4 4 6 6 5 7 9 5 5 4 3 5 7 12 22 35 22 10 4 3 7 9 11 12 13 15 18 18 18 19 20 18 20 22 26
3 3 3 5 7 6 5 4 6 5 5 5 6 7 5 6 4 3 6 8 17 24 29 17 6 2 6 13 15 18 23 29 33 34 40 42 36 33 37 35 34 37 35
3 5 6 5 5 7 6 4 4 3 5 7 6 5 4 3 4 7 11 18 26 28 13 3 2 5 15 20 26 29 25 25 27 25 19 20 30 35 33 30 31 30 30
4 5 4 5 5 3 4 5 6 6 5 6 6 4 4 5 6 12 22 22 25 11 3 4 2 12 22 26 23 14 25 27 17 18 18 16 15 21 22 22 22 24 23
4 3 4 4 5 7 8 7 7 5 6 6 4 3 6 8 16 25 18 24 9 4 2 3 6 21 28 22 12 23 17 11 9 22 18 18 18 20 22 23 18 16 18
3 5 5 6 7 8 12 9 6 6 6 4 4 6 10 16 17 23 22 13 6 3 3 3 11 28 25 21 20 23 11 10 14 14 17 14 14 14 16 13 14 15 23
4 5 6 8 13 15 8 5 6 6 3 4 6 9 11 18 23 20 12 9 5 4 4 6 18 29 19 16 18 13 9 16 26 16 13 16 16 14 13 14 16 24 21
7 9 12 18 12 6 4 7 5 2 3 6 6 7 18 23 19 12 9 8 4 5 5 9 29 22 15 13 15 17 13 17 29 16 0 8 17 18 15 16 17 20 25
9 17 15 8 5 7 7 3 2 2 4 4 9 17 25 19 13 10 9 8 5 6 6 19 28 16 15 14 18 17 16 17 18 15 1 11 21 19 16 14 17 29 31
19 12 7 8 8 5 2 2 3 4 6 8 18 23 19 14 10 10 10 5 6 2 11 28 21 13 14 15 19 18 16 12 11 15 6 15 24 17 16 22 29 34 12
Height
5801 5801 5800 5801 5800 5800 5800 5800 5799 5798 5796 5794 5791 5789 5786 5783 5781 5778 5776 5774 5771 5769 5766 5763 5759 5755 5752 5747 5743 5739 5734 5730 5723 5720 5718 5714 5711 5707 5702 5697 5692 5687 5683
5795 5796 5796 5796 5795 5796 5796 5794 5794 5793 5790 5787 5784 5781 5779 5777 5775 5772 5770 5767 5764 5761 5757 5753 5749 5745 5741 5736 5731 5726 5721 5717 5711 5705 5700 5699 5698 5694 5688 5683 5678 5673 5667
5790 5791 5792 5792 5791 5791 5791 5790 5788 5787 5784 5781 5777 5775 5773 5771 5768 5765 5762 5759 5756 5752 5748 5744 5740 5735 5731 5726 5720 5714 5708 5704 5699 5691 5685 5681 5678 5674 5673 5669 5664 5658 5654
5784 5787 5788 5788 5787 5785 5785 5783 5782 5780 5777 5775 5772 5769 5767 5764 5760 5758 5755 5751 5748 5743 5739 5735 5730 5725 5720 5715 5709 5703 5697 5691 5686 5680 5671 5663 5657 5650 5650 5650 5644 5639 5636
5779 5782 5784 5783 5782 5779 5777 5776 5774 5772 5770 5768 5766 5763 5760 5756 5753 5750 5747 5743 5739 5735 5731 5726 5720 5715 5709 5703 5697 5691 5684 5676 5670 5662 5655 5648 5640 5631 5622 5626 5625 5619 5615
5775 5776 5777 5777 5775 5772 5770 5769 5768 5766 5764 5761 5758 5754 5751 5749 5745 5742 5738 5733 5729 5724 5718 5713 5707 5700 5693 5687 5680 5673 5665 5658 5651 5643 5636 5627 5619 5612 5600 5592 5595 5593 5595
5770 5770 5771 5770 5768 5765 5764 5763 5761 5758 5755 5753 5750 5747 5743 5740 5737 5733 5729 5724 5719 5713 5706 5700 5693 5685 5678 5671 5664 5656 5648 5639 5631 5622 5613 5603 5593 5581 5572 5562 5560 5556 5562
5764 5765 5765 5763 5761 5759 5757 5755 5752 5750 5748 5745 5743 5739 5736 5732 5728 5723 5717 5712 5706 5700 5693 5686 5678 5671 5663 5655 5647 5639 5629 5620 5610 5600 5588 5578 5567 5556 5544 5533 5522 5520 5522
5759 5760 5759 5756 5754 5752 5750 5748 5745 5743 5741 5738 5734 5730 5726 5721 5716 5711 5705 5698 5691 5685 5677 5669 5661 5653 5643 5634 5624 5615 5605 5595 5585 5574 5563 5549 5540 5529 5518 5507 5497 5485 5480
5754 5753 5752 5750 5747 5744 5742 5741 5739 5736 5733 5729 5725 5720 5715 5710 5704 5698 5692 5685 5678 5670 5661 5652 5643 5633 5622 5612 5602 5593 5583 5572 5560 5547 5536 5523 5512 5503 5493 5484 5477 5468 5456
5748 5747 5745 5743 5740 5736 5735 5733 5731 5728 5724 5720 5715 5709 5704 5698 5692 5685 5678 5670 5661 5653 5643 5634 5624 5614 5603 5592 5581 5569 5557 5546 5533 5519 5506 5496 5484 5477 5470 5463 5457 5451 5441
5742 5741 5739 5735 5732 5730 5728 5726 5723 5719 5714 5709 5704 5698 5692 5686 5678 5670 5662 5653 5644 5635 5626 5616 5605 5593 5580 5567 5555 5543 5528 5516 5504 5491 5479 5471 5463 5455 5449 5443 5438 5430 5424
5735 5733 5730 5728 5725 5723 5721 5718 5714 5709 5704 5698 5692 5685 5679 5671 5663 5654 5645 5636 5628 5618 5607 5595 5583 5569 5554 5540 5525 5511 5499 5486 5475 5466 5457 5449 5441 5436 5429 5423 5416 5410 5404
5727 5724 5722 5720 5718 5716 5712 5708 5703 5698 5691 5686 5679 5672 5663 5655 5647 5639 5630 5620 5610 5598 5586 5572 5558 5541 5526 5508 5494 5481 5472 5462 5454 5445 5437 5429 5420 5413 5408 5402 5394 5387 5380
5720 5717 5716 5714 5711 5707 5702 5697 5692 5686 5679 5673 5665 5656 5648 5640 5632 5622 5612 5601 5589 5576 5562 5547 5532 5514 5497 5482 5470 5461 5451 5441 5434 5426 5416 5407 5398 5390 5382 5373 5370 5360 5352
5713 5712 5709 5705 5701 5697 5692 5686 5680 5673 5665 5658 5650 5643 5634 5625 5615 5605 5593 5581 5567 5553 5536 5521 5506 5491 5477 5463 5451 5436 5427 5419 5409 5400 5392 5383 5374 5363 5355 5347 5337 5330 5321
5707 5703 5700 5696 5691 5686 5680 5674 5667 5659 5651 5644 5636 5627 5618 5607 5595 5584 5572 5559 5544 5529 5514 5497 5482 5471 5457 5444 5431 5415 5403 5392 5381 5369 5359 5351 5341 5329 5319 5315 5306 5299 5295
5697 5694 5689 5685 5680 5674 5668 5660 5653 5645 5637 5628 5619 5610 5599 5588 5576 5564 5549 5534 5521 5506 5492 5479 5465 5453 5440 5422 5407 5390 5377 5365 5354 5341 5330 5318 5308 5297 5285 5277 5272 5269 5266
5688 5683 5679 5674 5668 5661 5654 5647 5639 5630 5621 5612 5602 5592 5582 5570 5557 5542 5527 5513 5500 5487 5475 5461 5447 5431 5420 5400 5382 5365 5352 5344 5335 5323 5312 5297 5285 5273 5262 5252 5247 5247 5248
5677 5672 5667 5661 5654 5648 5641 5633 5624 5616 5607 5597 5587 5576 5565 5550 5534 5521 5506 5492 5480 5469 5457 5446 5428 5411 5395 5380 5364 5348 5334 5326 5318 5311 5298 5286 5273 5261 5252 5242 5236 5233 5232
5666 5661 5655 5649 5642 5635 5627 5619 5611 5603 5593 5582 5570 5557 5542 5529 5514 5500 5486 5476 5465 5453 5440 5429 5414 5395 5376 5361 5348 5335 5322 5311 5305 5295 5286 5274 5263 5253 5245 5236 5228 5222 5220
5654 5649 5643 5636 5628 5621 5614 5606 5598 5587 5576 5564 5551 5538 5524 5508 5495 5483 5471 5460 5448 5436 5422 5410 5399 5380 5364 5348 5335 5324 5313 5301 5291 5283 5273 5263 5253 5245 5237 5229 5221 5216 5212
5641 5635 5628 5620 5613 5606 5598 5589 5580 5570 5558 5545 5533 5520 5507 5492 5478 5466 5456 5445 5432 5418 5406 5393 5381 5366 5352 5338 5325 5314 5303 5292 5282 5272 5263 5253 5245 5238 5230 5222 5215 5211 5207
5626 5619 5612 5605 5597 5590 5583 5575 5565 5553 5541 5529 5516 5503 5491 5478 5465 5452 5438 5428 5417 5405 5390 5376 5363 5350 5338 5326 5315 5304 5293 5283 5273 5264 5257 5247 5238 5230 5223 5217 5210 5205 5202
5610 5603 5596 5589 5583 5575 5566 5557 5546 5535 5524 5513 5500 5487 5474 5463 5452 5441 5427 5416 5404 5388 5372 5357 5343 5331 5323 5312 5299 5289 5280 5271 5262 5255 5249 5241 5233 5226 5219 5212 5206 5203 5201
5595 5589 5582 5576 5567 5558 5549 5539 5529 5519 5508 5496 5484 5471 5459 5448 5437 5428 5421 5406 5392 5379 5361 5345 5332 5320 5307 5297 5287 5278 5269 5262 5254 5249 5241 5234 5226 5219 5214 5209 5204 5202 5201